Time,TemperatureF,DewpointF,PressureIn,WindDirection,WindDirectionDegrees,WindSpeedMPH,WindSpeedGustMPH,Humidity,HourlyPrecipIn,Conditions,Clouds,dailyrainin,SoftwareType,DateUTC
2013-03-17 00:02:00,40.0,-99.9,-100.00,South,177,6.0,-999.0,-999,-99.99,,,-99.99,,2013-03-17 07:02:00,
2013-03-17 00:12:00,40.0,-99.9,-100.00,South,177,6.0,-999.0,-999,-99.99,,,-99.99,,2013-03-17 07:12:00,
2013-03-17 00:20:00,40.0,-99.9,-100.00,South,172,3.0,-999.0,-999,-99.99,,,-99.99,,2013-03-17 07:20:00,
2013-03-17 01:03:00,40.0,-99.9,-100.00,South,172,3.0,-999.0,-999,-99.99,,,-99.99,,2013-03-17 08:03:00,
2013-03-17 01:13:00,40.0,-99.9,-100.00,South,172,3.0,-999.0,-999,-99.99,,,-99.99,,2013-03-17 08:13:00,
2013-03-17 01:20:00,40.0,-99.9,-100.00,SSW,196,5.0,-999.0,-999,-99.99,,,-99.99,,2013-03-17 08:20:00,
2013-03-17 02:03:00,40.0,-99.9,-100.00,SSW,196,5.0,-999.0,-999,-99.99,,,-99.99,,2013-03-17 09:03:00,
2013-03-17 02:13:00,40.0,-99.9,-100.00,SSW,196,5.0,-999.0,-999,-99.99,,,-99.99,,2013-03-17 09:13:00,
2013-03-17 02:20:00,40.0,-99.9,-100.00,SSW,192,2.0,-999.0,-999,-99.99,,,-99.99,,2013-03-17 09:20:00,
2013-03-17 03:03:00,40.0,-99.9,-100.00,SSW,192,2.0,-999.0,-999,-99.99,,,-99.99,,2013-03-17 10:03:00,
2013-03-17 03:13:00,40.0,-99.9,-100.00,SSW,192,2.0,-999.0,-999,-99.99,,,-99.99,,2013-03-17 10:13:00,
2013-03-17 03:20:00,39.0,-99.9,-100.00,South,188,1.0,-999.0,-999,-99.99,,,-99.99,,2013-03-17 10:20:00,
2013-03-17 04:03:00,39.0,-99.9,-100.00,South,188,1.0,-999.0,-999,-99.99,,,-99.99,,2013-03-17 11:03:00,
2013-03-17 04:12:00,39.0,-99.9,-100.00,South,188,1.0,-999.0,-999,-99.99,,,-99.99,,2013-03-17 11:12:00,
2013-03-17 04:20:00,39.0,-99.9,-100.00,South,175,1.0,-999.0,-999,-99.99,,,-99.99,,2013-03-17 11:20:00,
2013-03-17 05:02:00,39.0,-99.9,-100.00,South,175,1.0,-999.0,-999,-99.99,,,-99.99,,2013-03-17 12:02:00,
2013-03-17 05:12:00,39.0,-99.9,-100.00,South,175,1.0,-999.0,-999,-99.99,,,-99.99,,2013-03-17 12:12:00,
2013-03-17 05:20:00,39.0,-99.9,-100.00,South,184,2.0,-999.0,-999,-99.99,,,-99.99,,2013-03-17 12:20:00,
2013-03-17 06:02:00,39.0,-99.9,-100.00,South,184,2.0,-999.0,-999,-99.99,,,-99.99,,2013-03-17 13:02:00,
2013-03-17 06:13:00,39.0,-99.9,-100.00,South,184,2.0,-999.0,-999,-99.99,,,-99.99,,2013-03-17 13:13:00,
2013-03-17 06:20:00,39.0,-99.9,-100.00,South,185,5.0,-999.0,-999,-99.99,,,-99.99,,2013-03-17 13:20:00,
2013-03-17 07:02:00,39.0,-99.9,-100.00,South,185,5.0,-999.0,-999,-99.99,,,-99.99,,2013-03-17 14:02:00,
2013-03-17 07:12:00,39.0,-99.9,-100.00,South,185,5.0,-999.0,-999,-99.99,,,-99.99,,2013-03-17 14:12:00,
2013-03-17 07:20:00,39.0,-99.9,-100.00,South,191,6.0,-999.0,-999,-99.99,,,-99.99,,2013-03-17 14:20:00,
2013-03-17 08:02:00,39.0,-99.9,-100.00,South,191,6.0,-999.0,-999,-99.99,,,-99.99,,2013-03-17 15:02:00,
2013-03-17 08:12:00,39.0,-99.9,-100.00,South,191,6.0,-999.0,-999,-99.99,,,-99.99,,2013-03-17 15:12:00,
2013-03-17 08:20:00,39.0,-99.9,-100.00,SW,236,1.0,-999.0,-999,-99.99,,,-99.99,,2013-03-17 15:20:00,
2013-03-17 09:03:00,39.0,-99.9,-100.00,SW,236,1.0,-999.0,-999,-99.99,,,-99.99,,2013-03-17 16:03:00,
2013-03-17 09:13:00,39.0,-99.9,-100.00,SW,236,1.0,-999.0,-999,-99.99,,,-99.99,,2013-03-17 16:13:00,
2013-03-17 09:20:00,41.0,-99.9,-100.00,South,176,7.0,-999.0,-999,-99.99,,,-99.99,,2013-03-17 16:20:00,
2013-03-17 10:03:00,41.0,-99.9,-100.00,South,176,7.0,-999.0,-999,-99.99,,,-99.99,,2013-03-17 17:03:00,
2013-03-17 10:12:00,41.0,-99.9,-100.00,South,176,7.0,-999.0,-999,-99.99,,,-99.99,,2013-03-17 17:12:00,
2013-03-17 10:20:00,43.0,-99.9,-100.00,SSW,194,8.0,-999.0,-999,-99.99,,,-99.99,,2013-03-17 17:20:00,
2013-03-17 11:02:00,43.0,-99.9,-100.00,SSW,194,8.0,-999.0,-999,-99.99,,,-99.99,,2013-03-17 18:02:00,
2013-03-17 11:13:00,43.0,-99.9,-100.00,SSW,194,8.0,-999.0,-999,-99.99,,,-99.99,,2013-03-17 18:13:00,
2013-03-17 11:20:00,44.0,-99.9,-100.00,South,187,10.0,-999.0,-999,-99.99,,,-99.99,,2013-03-17 18:20:00,
2013-03-17 12:03:00,44.0,-99.9,-100.00,South,187,10.0,-999.0,-999,-99.99,,,-99.99,,2013-03-17 19:03:00,
2013-03-17 12:12:00,44.0,-99.9,-100.00,South,187,10.0,-999.0,-999,-99.99,,,-99.99,,2013-03-17 19:12:00,
2013-03-17 12:20:00,46.0,-99.9,-100.00,SSW,203,7.0,-999.0,-999,-99.99,,,-99.99,,2013-03-17 19:20:00,
2013-03-17 13:02:00,46.0,-99.9,-100.00,SSW,203,7.0,-999.0,-999,-99.99,,,-99.99,,2013-03-17 20:02:00,
2013-03-17 13:12:00,46.0,-99.9,-100.00,SSW,203,7.0,-999.0,-999,-99.99,,,-99.99,,2013-03-17 20:12:00,
2013-03-17 13:20:00,48.0,-99.9,-100.00,South,186,7.0,-999.0,-999,-99.99,,,-99.99,,2013-03-17 20:20:00,
2013-03-17 14:03:00,48.0,-99.9,-100.00,South,186,7.0,-999.0,-999,-99.99,,,-99.99,,2013-03-17 21:03:00,
2013-03-17 14:12:00,48.0,-99.9,-100.00,South,186,7.0,-999.0,-999,-99.99,,,-99.99,,2013-03-17 21:12:00,
2013-03-17 14:20:00,47.0,-99.9,-100.00,South,178,12.0,-999.0,-999,-99.99,,,-99.99,,2013-03-17 21:20:00,
2013-03-17 15:03:00,47.0,-99.9,-100.00,South,178,12.0,-999.0,-999,-99.99,,,-99.99,,2013-03-17 22:03:00,
2013-03-17 15:13:00,47.0,-99.9,-100.00,South,178,12.0,-999.0,-999,-99.99,,,-99.99,,2013-03-17 22:13:00,
2013-03-17 15:20:00,47.0,-99.9,-100.00,SSW,198,12.0,-999.0,-999,-99.99,,,-99.99,,2013-03-17 22:20:00,
2013-03-17 16:03:00,47.0,-99.9,-100.00,SSW,198,12.0,-999.0,-999,-99.99,,,-99.99,,2013-03-17 23:03:00,
2013-03-17 16:13:00,47.0,-99.9,-100.00,SSW,198,12.0,-999.0,-999,-99.99,,,-99.99,,2013-03-17 23:13:00,
2013-03-17 16:20:00,47.0,-99.9,-100.00,SSW,199,6.0,-999.0,-999,-99.99,,,-99.99,,2013-03-17 23:20:00,
2013-03-17 17:04:00,47.0,-99.9,-100.00,SSW,199,6.0,-999.0,-999,-99.99,,,-99.99,,2013-03-18 00:04:00,
2013-03-17 17:13:00,47.0,-99.9,-100.00,SSW,199,6.0,-999.0,-999,-99.99,,,-99.99,,2013-03-18 00:13:00,
2013-03-17 17:20:00,47.0,-99.9,-100.00,SSW,197,6.0,-999.0,-999,-99.99,,,-99.99,,2013-03-18 00:20:00,
2013-03-17 18:02:00,47.0,-99.9,-100.00,SSW,197,6.0,-999.0,-999,-99.99,,,-99.99,,2013-03-18 01:02:00,
2013-03-17 18:12:00,47.0,-99.9,-100.00,SSW,197,6.0,-999.0,-999,-99.99,,,-99.99,,2013-03-18 01:12:00,
2013-03-17 18:20:00,45.0,-99.9,-100.00,West,262,5.0,-999.0,-999,-99.99,,,-99.99,,2013-03-18 01:20:00,
2013-03-17 19:02:00,45.0,-99.9,-100.00,West,262,5.0,-999.0,-999,-99.99,,,-99.99,,2013-03-18 02:02:00,
2013-03-17 19:12:00,45.0,-99.9,-100.00,West,262,5.0,-999.0,-999,-99.99,,,-99.99,,2013-03-18 02:12:00,
2013-03-17 19:20:00,43.0,-99.9,-100.00,NW,306,7.0,-999.0,-999,-99.99,,,-99.99,,2013-03-18 02:20:00,
2013-03-17 20:03:00,43.0,-99.9,-100.00,NW,306,7.0,-999.0,-999,-99.99,,,-99.99,,2013-03-18 03:03:00,
2013-03-17 20:12:00,43.0,-99.9,-100.00,NW,306,7.0,-999.0,-999,-99.99,,,-99.99,,2013-03-18 03:12:00,
2013-03-17 20:20:00,43.0,-99.9,-100.00,SW,218,7.0,-999.0,-999,-99.99,,,-99.99,,2013-03-18 03:20:00,
2013-03-17 21:03:00,43.0,-99.9,-100.00,SW,218,7.0,-999.0,-999,-99.99,,,-99.99,,2013-03-18 04:03:00,
2013-03-17 21:13:00,43.0,-99.9,-100.00,SW,218,7.0,-999.0,-999,-99.99,,,-99.99,,2013-03-18 04:13:00,
2013-03-17 21:20:00,42.0,-99.9,-100.00,SSW,202,3.0,-999.0,-999,-99.99,,,-99.99,,2013-03-18 04:20:00,
2013-03-17 22:03:00,42.0,-99.9,-100.00,SSW,202,3.0,-999.0,-999,-99.99,,,-99.99,,2013-03-18 05:03:00,
2013-03-17 22:13:00,42.0,-99.9,-100.00,SSW,202,3.0,-999.0,-999,-99.99,,,-99.99,,2013-03-18 05:13:00,
2013-03-17 22:20:00,41.0,-99.9,-100.00,SSW,199,6.0,-999.0,-999,-99.99,,,-99.99,,2013-03-18 05:20:00,
2013-03-17 23:02:00,41.0,-99.9,-100.00,SSW,199,6.0,-999.0,-999,-99.99,,,-99.99,,2013-03-18 06:02:00,
2013-03-17 23:12:00,41.0,-99.9,-100.00,SSW,199,6.0,-999.0,-999,-99.99,,,-99.99,,2013-03-18 06:12:00,
2013-03-17 23:20:00,41.0,-99.9,-100.00,South,173,2.0,-999.0,-999,-99.99,,,-99.99,,2013-03-18 06:20:00,